period_start,C,m1,H,J0,J1,J2,J3,J4,J5,JA,JB,JC,JD,JJ,JK,JN,#
2018-06-24 10:26:40,0.00,0.00,0.00,27.86,27.28,26.70,12.27,42.84,1011.43,1898.59,3147.59,2897.62,3335.47,552.15,538.39,0.01,0000 0000 0000 0000 000000
2018-06-24 10:31:41,0.01,0.00,0.00,27.98,27.32,28.40,13.37,46.38,1011.73,2031.44,3361.40,3097.22,3564.67,600.08,583.52,0.06,0000 0000 0000 0000 000000
2018-06-24 10:36:43,0.03,0.01,0.00,28.18,27.38,29.35,13.35,46.37,1011.84,2030.99,3357.30,3094.65,3560.71,599.90,583.03,0.11,0000 0000 0000 0000 000000
2018-06-24 10:41:45,0.06,0.02,0.00,28.51,27.47,29.88,13.43,46.32,1012.18,2030.58,3353.99,3092.43,3557.45,600.16,582.78,0.16,0000 0000 0000 0000 000000
2018-06-24 10:46:47,0.08,0.02,0.00,28.83,27.59,30.27,13.31,46.15,1012.22,2030.01,3350.81,3090.28,3554.32,599.67,581.76,0.21,0000 0000 0000 0000 000000
2018-06-24 10:51:49,0.08,0.03,0.00,29.11,27.75,30.69,13.35,46.11,1012.22,2029.47,3347.85,3088.19,3551.34,599.68,581.12,0.26,0000 0000 0000 0000 000000
2018-06-24 10:56:51,0.11,0.03,0.00,29.33,27.94,31.15,13.32,46.20,1012.22,2028.93,3344.74,3086.02,3548.29,599.63,580.82,0.31,0000 0000 0000 0000 000000
2018-06-24 11:01:53,0.08,0.03,0.00,29.53,28.14,31.55,13.31,46.15,1012.22,2028.09,3341.49,3083.64,3545.10,599.93,580.68,0.36,0000 0000 0000 0000 000000
2018-06-24 11:06:55,0.08,0.04,0.00,29.72,28.37,31.91,13.37,46.29,1012.23,2027.31,3338.25,3081.24,3541.89,599.87,580.16,0.41,0000 0000 0000 0000 000000
2018-06-24 11:11:56,0.08,0.04,0.00,29.93,28.61,32.27,13.38,46.18,1012.24,2026.35,3334.88,3078.59,3538.48,600.08,580.04,0.46,0000 0000 0000 0000 000000
2018-06-24 11:16:58,0.08,0.05,0.00,30.13,28.87,32.63,13.40,46.17,1012.44,2025.43,3331.53,3076.01,3535.14,599.80,579.45,0.51,0000 0000 0000 0000 000000
2018-06-24 11:22:00,0.08,0.05,0.00,30.32,29.13,32.97,13.34,46.13,1012.68,2024.45,3328.02,3073.31,3531.60,600.47,579.71,0.56,0000 0000 0000 0000 000000
2018-06-24 11:27:02,0.08,0.06,0.00,30.48,29.39,33.30,13.33,46.08,1012.70,2023.45,3324.53,3070.65,3528.09,600.32,579.40,0.61,0000 0000 0000 0000 000000
2018-06-24 11:32:04,0.08,0.06,0.00,30.60,29.66,33.59,13.33,46.19,1012.71,2022.34,3320.97,3067.96,3524.60,599.84,578.70,0.66,0000 0000 0000 0000 000000
2018-06-24 11:37:05,0.08,0.06,0.00,30.68,29.91,33.82,13.30,46.07,1012.71,2021.26,3317.46,3065.24,3521.15,599.85,578.56,0.71,0000 0000 0000 0000 000000
2018-06-24 11:42:07,0.08,0.07,0.00,30.76,30.16,34.07,13.32,46.08,1012.72,2020.13,3313.96,3062.50,3517.83,599.61,578.20,0.76,0000 0000 0000 0000 000000
2018-06-24 11:47:08,0.09,0.07,0.00,30.84,30.41,34.30,13.37,46.09,1012.72,2019.10,3310.40,3059.81,3514.46,599.87,578.32,0.81,0000 0000 0000 0000 000000
2018-06-24 11:52:10,0.08,0.08,0.00,30.90,30.65,34.49,13.43,46.11,1012.72,2018.09,3306.94,3057.22,3511.12,600.02,578.46,0.86,0000 0000 0000 0000 000000
2018-06-24 11:57:11,0.07,0.08,0.00,30.97,30.87,34.68,13.35,46.05,1012.73,2017.09,3303.64,3054.64,3507.86,599.76,577.76,0.91,0000 0000 0000 0000 000000
2018-06-24 12:02:13,0.08,0.08,0.00,31.04,31.09,34.87,13.34,45.92,1012.79,2016.03,3300.35,3052.05,3504.56,600.18,578.22,0.96,0000 0000 0000 0000 000000
2018-06-24 12:07:14,0.07,0.09,0.00,31.10,31.30,35.04,13.35,46.02,1012.96,2015.02,3297.12,3049.53,3501.41,599.95,578.04,1.01,0000 0000 0000 0000 000000
2018-06-24 12:12:16,0.08,0.09,0.00,31.15,31.50,35.18,13.37,46.08,1012.93,2014.05,3293.75,3047.12,3498.36,599.88,577.90,1.06,0000 0000 0000 0000 000000
2018-06-24 12:17:17,0.07,0.10,0.00,31.21,31.70,35.26,13.38,46.08,1012.84,2013.15,3290.48,3044.68,3495.34,600.07,577.96,1.11,0000 0000 0000 0000 000000
2018-06-24 12:22:19,0.06,0.10,0.00,31.26,31.88,35.21,13.44,45.83,1012.87,2012.28,3287.37,3042.27,3492.32,600.66,578.40,1.16,0000 0000 0000 0000 000000
2018-06-24 12:27:20,0.06,0.10,0.00,31.30,32.06,35.26,13.40,45.89,1012.75,2011.53,3284.41,3040.13,3489.53,600.40,577.88,1.21,0000 0000 0000 0000 000000
2018-06-24 12:32:22,0.09,0.11,0.00,31.34,32.24,35.35,13.40,45.88,1012.74,2010.66,3281.25,3037.71,3486.53,600.37,577.85,1.26,0000 0000 0000 0000 000000
2018-06-24 12:37:24,0.10,0.11,0.00,31.37,32.40,35.46,13.45,45.89,1012.84,2009.91,3278.22,3035.44,3483.66,600.29,577.87,1.31,0000 0000 0000 0000 000000
2018-06-24 12:42:25,0.06,0.11,0.00,31.41,32.56,35.54,13.33,45.76,1012.95,2009.08,3275.17,3033.21,3480.89,600.41,577.94,1.36,0000 0000 0000 0000 000000
2018-06-24 12:47:27,0.05,0.12,0.00,31.44,32.71,35.64,13.35,45.91,1013.01,2008.40,3272.42,3031.17,3478.34,599.67,577.07,1.42,0000 0000 0000 0000 000000
2018-06-24 12:52:28,0.08,0.12,0.00,31.47,32.85,35.74,13.39,45.85,1013.10,2007.77,3269.62,3029.12,3475.70,599.91,577.37,1.47,0000 0000 0000 0000 000000
2018-06-24 12:57:29,0.08,0.13,0.00,31.50,32.98,35.84,13.28,45.84,1013.18,2007.01,3266.80,3027.09,3473.08,599.59,577.01,1.52,0000 0000 0000 0000 000000
2018-06-24 13:02:31,0.05,0.13,0.00,31.52,33.11,35.92,13.39,45.68,1013.36,2006.29,3263.94,3024.97,3470.47,600.00,577.48,1.57,0000 0000 0000 0000 000000
2018-06-24 13:07:32,0.10,0.14,0.00,31.55,33.23,36.02,13.40,45.86,1013.69,2005.87,3261.27,3023.01,3467.96,600.46,578.09,1.62,0000 0000 0000 0000 000000
2018-06-24 13:12:34,0.08,0.14,0.00,31.57,33.35,36.10,13.43,45.75,1013.64,2005.10,3258.30,3020.90,3465.32,600.28,577.81,1.67,0000 0000 0000 0000 000000
2018-06-24 13:17:35,0.07,0.14,0.00,31.60,33.46,36.19,13.40,45.71,1013.67,2004.60,3255.48,3018.85,3462.66,600.07,577.57,1.72,0000 0000 0000 0000 000000
2018-06-24 13:22:37,0.10,0.15,0.00,31.62,33.57,36.26,13.40,45.85,1013.64,2004.00,3252.59,3016.87,3460.12,600.02,577.50,1.77,0000 0000 0000 0000 000000
2018-06-24 13:27:38,0.06,0.15,0.00,31.64,33.67,36.34,13.39,45.86,1013.53,2003.47,3249.64,3014.81,3457.51,600.17,577.53,1.82,0000 0000 0000 0000 000000
2018-06-24 13:32:40,0.12,0.16,0.00,31.65,33.77,36.40,13.35,45.77,1013.30,2003.00,3246.69,3012.78,3455.03,600.02,577.31,1.87,0000 0000 0000 0000 000000
2018-06-24 13:37:41,0.05,0.16,0.00,31.67,33.86,36.48,13.33,45.74,1013.23,2002.49,3243.91,3010.86,3452.61,600.02,577.30,1.92,0000 0000 0000 0000 000000
2018-06-24 13:42:42,0.11,0.17,0.00,31.69,33.94,36.54,13.46,45.80,1013.21,2002.00,3241.20,3008.97,3450.17,600.52,577.54,1.97,0000 0000 0000 0000 000000
2018-06-24 13:47:43,0.04,0.17,0.00,31.72,34.03,36.60,13.39,45.55,1013.21,2001.52,3238.61,3007.30,3447.84,599.99,576.95,2.02,0000 0000 0000 0000 000000
2018-06-24 13:52:45,0.10,0.17,0.00,31.72,34.11,36.66,13.40,45.73,1013.20,2001.02,3236.08,3005.58,3445.54,600.15,577.07,2.07,0000 0000 0000 0000 000000
2018-06-24 13:57:46,0.10,0.18,0.00,31.75,34.18,36.72,13.42,45.71,1013.20,2000.92,3233.58,3003.92,3443.45,600.13,577.23,2.12,0000 0000 0000 0000 000000
2018-06-24 14:02:47,0.04,0.18,0.00,31.76,34.25,36.77,13.41,45.86,1013.20,2000.19,3231.17,3002.21,3441.25,600.13,577.12,2.17,0000 0000 0000 0000 000000
2018-06-24 14:07:49,0.11,0.19,0.00,31.78,34.32,36.82,13.34,45.68,1013.19,1999.99,3228.81,3000.59,3439.20,599.86,576.79,2.22,0000 0000 0000 0000 000000
2018-06-24 14:12:50,0.07,0.19,0.00,31.80,34.39,36.87,13.37,45.73,1013.17,1999.66,3226.48,2998.97,3437.09,600.17,577.02,2.27,0000 0000 0000 0000 000000
2018-06-24 14:17:52,0.06,0.19,0.00,31.81,34.45,36.91,13.36,45.72,1013.19,1999.08,3224.16,2997.42,3435.10,599.92,576.76,2.32,0000 0000 0000 0000 000000
2018-06-24 14:22:53,0.11,0.20,0.00,31.82,34.51,36.95,13.40,45.73,1013.19,1998.97,3221.72,2995.75,3432.98,600.25,577.02,2.37,0000 0000 0000 0000 000000
2018-06-24 14:27:55,0.07,0.20,0.00,31.84,34.56,37.00,13.40,45.64,1013.19,1998.71,3219.39,2994.18,3430.97,599.73,576.56,2.42,0000 0000 0000 0000 000000
2018-06-24 14:32:57,0.06,0.21,0.00,31.85,34.61,37.04,13.37,45.43,1013.20,1998.08,3217.01,2992.59,3428.95,599.69,576.56,2.47,0000 0000 0000 0000 000000
2018-06-24 14:37:58,0.24,0.21,0.00,31.85,34.66,37.08,13.36,45.47,1013.19,1998.00,3212.90,2989.61,3425.41,599.98,576.76,2.52,0000 0000 0000 0000 000000
2018-06-24 14:42:59,0.47,0.23,0.00,31.87,34.71,37.12,13.46,45.57,1013.20,1997.98,3204.07,2982.83,3417.67,600.13,576.82,2.57,0000 0000 0000 0000 000000
2018-06-24 14:48:00,0.15,0.25,0.00,31.87,34.75,37.15,13.32,45.64,1013.20,1997.48,3198.45,2978.45,3412.60,599.81,576.58,2.62,0000 0000 0000 0000 000000
2018-06-24 14:53:02,0.11,0.25,0.00,31.89,34.80,37.19,13.40,45.55,1013.20,1997.01,3195.52,2976.51,3410.07,599.81,576.50,2.67,0000 0000 0000 0000 000000
2018-06-24 14:58:03,0.10,0.26,0.00,31.90,34.84,37.23,13.47,45.53,1013.20,1997.00,3193.23,2974.95,3408.21,599.98,576.69,2.72,0000 0000 0000 0000 000000
2018-06-24 15:03:04,0.08,0.26,0.00,31.90,34.88,37.25,13.36,45.55,1013.22,1996.91,3191.41,2973.62,3406.53,600.18,576.88,2.77,0000 0000 0000 0000 000000
2018-06-24 15:08:05,0.01,0.27,0.00,31.92,34.91,37.29,13.37,45.84,1013.24,1996.14,3189.91,2972.42,3404.71,599.64,576.26,2.82,0000 0000 0000 0000 000000
2018-06-24 15:13:07,0.09,0.27,0.00,31.92,34.95,37.32,13.38,45.79,1013.29,1996.00,3187.85,2971.00,3403.00,599.80,576.49,2.87,0000 0000 0000 0000 000000
2018-06-24 15:18:08,0.10,0.28,0.00,31.93,34.98,37.34,13.39,45.75,1013.23,1995.97,3185.41,2969.61,3401.24,599.91,576.53,2.92,0000 0000 0000 0000 000000
2018-06-24 15:23:09,0.10,0.28,0.00,31.93,35.01,37.38,13.39,45.60,1013.25,1995.94,3183.01,2968.26,3399.49,599.97,576.62,2.97,0000 0000 0000 0000 000000
2018-06-24 15:28:10,0.11,0.29,0.00,31.92,35.04,37.39,13.36,45.42,1013.22,1995.92,3180.50,2966.77,3397.72,599.61,576.51,3.02,0000 0000 0000 0000 000000
2018-06-24 15:33:11,0.09,0.29,0.00,31.94,35.06,37.42,13.39,45.38,1013.21,1995.69,3177.97,2965.17,3395.72,600.22,576.77,3.07,0000 0000 0000 0000 000000
2018-06-24 15:38:12,0.04,0.29,0.00,31.94,35.09,37.45,13.38,45.58,1013.30,1995.35,3175.98,2963.73,3393.94,599.58,576.28,3.12,0000 0000 0000 0000 000000
2018-06-24 15:43:14,0.07,0.30,0.00,31.93,35.11,37.46,13.42,45.30,1013.67,1995.01,3174.14,2962.49,3392.40,599.79,576.68,3.17,0000 0000 0000 0000 000000
2018-06-24 15:48:15,0.08,0.30,0.00,31.93,35.13,37.49,13.34,45.11,1013.68,1995.00,3172.06,2961.30,3390.92,599.53,576.51,3.22,0000 0000 0000 0000 000000
2018-06-24 15:53:16,0.08,0.31,0.00,31.93,35.15,37.51,13.36,45.48,1013.50,1995.00,3170.16,2960.15,3389.49,599.95,576.61,3.27,0000 0000 0000 0000 000000
2018-06-24 15:58:18,0.08,0.31,0.00,31.93,35.17,37.53,13.47,45.67,1013.32,1995.00,3168.30,2959.00,3388.10,600.00,576.71,3.32,0000 0000 0000 0000 000000
2018-06-24 16:03:19,0.09,0.31,0.00,31.93,35.19,37.55,13.38,45.21,1013.22,1995.00,3166.37,2957.73,3386.58,600.23,576.94,3.37,0000 0000 0000 0000 000000
2018-06-24 16:08:20,0.09,0.32,0.00,31.93,35.21,37.56,13.42,45.36,1013.38,1994.97,3164.35,2956.46,3384.98,600.10,576.72,3.42,0000 0000 0000 0000 000000
2018-06-24 16:13:21,0.08,0.32,0.00,31.93,35.22,37.58,13.46,45.49,1013.60,1994.91,3162.28,2955.09,3383.32,600.34,577.21,3.47,0000 0000 0000 0000 000000
2018-06-24 16:18:23,0.10,0.33,0.00,31.93,35.24,37.60,13.41,45.58,1013.53,1994.87,3160.12,2953.72,3381.58,600.03,576.86,3.52,0000 0000 0000 0000 000000
2018-06-24 16:23:24,0.06,0.33,0.00,31.92,35.25,37.61,13.39,45.23,1013.37,1994.65,3158.17,2952.44,3380.03,599.59,576.45,3.57,0000 0000 0000 0000 000000
2018-06-24 16:28:25,0.05,0.34,0.00,31.92,35.27,37.62,13.33,45.37,1013.28,1994.29,3156.39,2951.32,3378.55,599.66,576.35,3.62,0000 0000 0000 0000 000000
2018-06-24 16:33:27,0.07,0.34,0.00,31.92,35.28,37.62,13.50,45.82,1013.20,1994.10,3154.52,2950.15,3377.08,600.28,577.05,3.68,0000 0000 0000 0000 000000
2018-06-24 16:38:28,0.07,0.34,0.00,31.92,35.30,37.64,13.46,45.50,1013.13,1994.07,3152.74,2949.05,3375.73,600.16,576.69,3.73,0000 0000 0000 0000 000000
2018-06-24 16:43:29,0.06,0.35,0.00,31.92,35.30,37.65,13.44,45.50,1013.18,1994.05,3151.09,2947.96,3374.49,600.21,576.77,3.78,0000 0000 0000 0000 000000
2018-06-24 16:48:31,0.11,0.35,0.00,31.90,35.32,37.65,13.49,45.69,1013.20,1994.06,3149.06,2946.69,3372.92,600.46,577.16,3.83,0000 0000 0000 0000 000000
2018-06-24 16:53:32,0.10,0.36,0.00,31.90,35.32,37.67,13.44,45.71,1013.20,1994.02,3146.60,2945.13,3371.08,600.35,576.84,3.88,0000 0000 0000 0000 000000
2018-06-24 16:58:33,0.10,0.36,0.00,31.90,35.34,37.67,13.41,45.29,1013.21,1994.06,3144.40,2943.76,3369.47,599.75,576.46,3.93,0000 0000 0000 0000 000000
2018-06-24 17:03:34,0.04,0.37,0.00,31.90,35.35,37.68,13.33,45.35,1013.33,1994.03,3143.03,2942.89,3368.43,599.16,576.08,3.98,0000 0000 0000 0000 000000
2018-06-24 17:08:36,0.05,0.37,0.00,31.90,35.35,37.69,13.53,45.77,1013.60,1994.03,3142.00,2942.05,3367.69,600.13,577.10,4.03,0000 0000 0000 0000 000000
2018-06-24 17:13:37,0.04,0.37,0.00,31.88,35.36,37.70,13.35,45.61,1013.69,1994.06,3141.08,2941.46,3366.97,599.68,576.69,4.08,0000 0000 0000 0000 000000
2018-06-24 17:18:38,0.03,0.37,0.00,31.87,35.37,37.70,13.39,45.65,1013.70,1994.02,3140.32,2940.95,3366.13,599.74,576.87,4.13,0000 0000 0000 0000 000000
2018-06-24 17:23:40,0.03,0.37,0.00,31.87,35.37,37.70,13.48,45.79,1013.69,1993.99,3139.94,2940.17,3365.33,600.44,577.50,4.18,0000 0000 0000 0000 000000
2018-06-24 17:28:41,0.03,0.38,0.00,31.86,35.37,37.71,13.35,45.51,1013.70,1993.94,3139.00,2939.81,3364.68,599.86,576.91,4.23,0000 0000 0000 0000 000000
2018-06-24 17:33:42,0.03,0.38,0.00,31.85,35.37,37.70,13.45,45.65,1013.71,1993.70,3137.79,2939.01,3363.73,599.66,576.82,4.28,0000 0000 0000 0000 000000
2018-06-24 17:38:44,0.04,0.38,0.00,31.84,35.37,37.71,13.49,45.73,1013.71,1993.49,3136.73,2938.26,3362.89,600.40,577.49,4.33,0000 0000 0000 0000 000000
2018-06-24 17:43:45,0.07,0.38,0.00,31.82,35.37,37.71,13.54,45.64,1013.70,1993.55,3135.02,2937.19,3361.73,599.97,577.11,4.38,0000 0000 0000 0000 000000
2018-06-24 17:48:46,0.04,0.39,0.00,31.82,35.37,37.70,13.41,45.26,1013.69,1993.59,3134.04,2936.65,3361.00,599.46,576.57,4.43,0000 0000 0000 0000 000000
2018-06-24 17:53:47,0.05,0.39,0.00,31.81,35.37,37.71,13.47,45.54,1013.69,1993.67,3133.18,2936.04,3360.33,599.99,577.19,4.48,0000 0000 0000 0000 000000
2018-06-24 17:58:49,0.02,0.39,0.00,31.80,35.36,37.71,13.35,45.12,1013.69,1993.67,3132.55,2935.98,3359.98,599.70,576.85,4.53,0000 0000 0000 0000 000000
2018-06-24 18:03:50,-0.01,0.39,0.00,31.78,35.35,37.70,13.43,45.41,1013.71,1993.51,3132.01,2935.32,3359.29,599.64,576.87,4.58,0000 0000 0000 0000 000000
2018-06-24 18:08:51,0.03,0.39,0.00,31.76,35.35,37.70,13.52,45.57,1013.70,1993.03,3131.43,2934.57,3358.26,600.23,577.47,4.63,0000 0000 0000 0000 000000
2018-06-24 18:13:52,0.03,0.39,0.00,31.75,35.35,37.70,13.45,45.48,1013.69,1993.00,3130.25,2933.99,3357.38,599.87,577.18,4.68,0000 0000 0000 0000 000000
2018-06-24 18:18:53,0.04,0.39,0.00,31.74,35.34,37.69,13.45,45.55,1013.70,1993.00,3129.05,2933.31,3356.88,600.13,577.55,4.73,0000 0000 0000 0000 000000
2018-06-24 18:23:54,0.02,0.40,0.00,31.72,35.33,37.69,13.53,45.77,1013.82,1993.00,3128.37,2932.99,3356.09,600.09,577.47,4.78,0000 0000 0000 0000 000000
2018-06-24 18:28:56,0.00,0.40,0.00,31.71,35.32,37.68,13.53,45.58,1013.95,1993.00,3128.00,2932.98,3356.00,600.00,577.47,4.83,0000 0000 0000 0000 000000
2018-06-24 18:33:57,0.02,0.40,0.00,31.70,35.32,37.67,13.43,45.69,1014.12,1993.00,3127.53,2932.70,3355.93,600.07,577.66,4.88,0000 0000 0000 0000 000000
2018-06-24 18:38:58,0.02,0.40,0.00,31.68,35.30,37.66,13.50,45.72,1014.03,1993.00,3127.01,2932.18,3355.47,599.63,577.12,4.93,0000 0000 0000 0000 000000
2018-06-24 18:44:00,0.02,0.40,0.00,31.66,35.30,37.67,13.50,45.65,1013.98,1993.01,3126.49,2932.01,3355.03,599.89,577.50,4.98,0000 0000 0000 0000 000000
2018-06-24 18:49:01,0.00,0.40,0.00,31.65,35.29,37.64,13.44,45.39,1013.73,1993.04,3125.98,2931.99,3354.97,600.14,577.69,5.03,0000 0000 0000 0000 000000
2018-06-24 18:54:02,0.03,0.40,0.00,31.63,35.27,37.64,13.40,45.04,1013.76,1993.02,3125.19,2931.67,3354.28,600.25,577.77,5.08,0000 0000 0000 0000 000000
2018-06-24 18:59:03,0.03,0.40,0.00,31.61,35.27,37.64,13.43,45.35,1013.87,1993.15,3124.97,2931.16,3354.01,599.89,577.44,5.13,0000 0000 0000 0000 000000
2018-06-24 19:04:05,0.03,0.41,0.00,31.60,35.25,37.62,13.47,45.26,1013.79,1993.33,3124.28,2931.01,3353.98,600.04,577.61,5.18,0000 0000 0000 0000 000000
2018-06-24 19:09:06,0.05,0.41,0.00,31.57,35.25,37.61,13.45,45.16,1013.75,1993.74,3123.98,2930.99,3353.60,599.75,577.51,5.23,0000 0000 0000 0000 000000
2018-06-24 19:14:07,0.03,0.41,0.00,31.56,35.23,37.59,13.50,45.52,1013.86,1993.85,3123.32,2930.81,3353.06,600.16,577.93,5.28,0000 0000 0000 0000 000000
2018-06-24 19:19:08,0.02,0.41,0.00,31.55,35.22,37.61,13.42,45.50,1014.07,1993.86,3122.88,2930.16,3352.91,600.29,578.14,5.33,0000 0000 0000 0000 000000
2018-06-24 19:24:09,0.02,0.41,0.00,31.52,35.21,37.59,13.42,45.23,1014.10,1993.88,3122.10,2930.00,3352.30,599.55,577.60,5.38,0000 0000 0000 0000 000000
2018-06-24 19:29:10,0.01,0.41,0.00,31.51,35.20,37.57,13.46,45.47,1013.97,1993.96,3121.88,2929.99,3352.02,600.05,577.98,5.43,0000 0000 0000 0000 000000
2018-06-24 19:34:11,0.03,0.42,0.00,31.50,35.20,37.57,13.47,45.48,1013.97,1993.96,3121.09,2929.56,3351.94,599.98,577.77,5.48,0000 0000 0000 0000 000000
2018-06-24 19:39:13,0.02,0.42,0.00,31.48,35.18,37.56,13.53,45.63,1014.08,1993.98,3120.87,2929.11,3351.50,599.94,577.93,5.53,0000 0000 0000 0000 000000
2018-06-24 19:44:14,0.02,0.42,0.00,31.46,35.17,37.53,13.46,45.31,1014.16,1993.99,3120.12,2929.00,3351.02,599.81,577.94,5.58,0000 0000 0000 0000 000000
2018-06-24 19:49:15,0.00,0.42,0.00,31.44,35.16,37.54,13.50,45.48,1014.16,1993.99,3119.92,2929.00,3350.98,600.20,578.49,5.63,0000 0000 0000 0000 000000
2018-06-24 19:54:16,0.02,0.42,0.00,31.42,35.15,37.52,13.45,45.39,1014.17,1994.00,3119.17,2928.91,3350.76,600.11,578.24,5.68,0000 0000 0000 0000 000000
2018-06-24 19:59:18,0.04,0.42,0.00,31.40,35.14,37.53,13.48,45.43,1014.16,1994.00,3118.74,2928.25,3350.07,600.03,578.22,5.73,0000 0000 0000 0000 000000
2018-06-24 20:04:19,0.06,0.42,0.00,31.40,35.12,37.52,13.48,45.52,1014.14,1994.00,3117.21,2927.57,3349.18,599.80,577.98,5.78,0000 0000 0000 0000 000000
2018-06-24 20:09:20,0.10,0.43,0.00,31.37,35.11,37.50,13.37,45.11,1014.15,1994.05,3115.32,2926.36,3347.86,599.88,578.23,5.83,0000 0000 0000 0000 000000
2018-06-24 20:14:22,0.07,0.43,0.00,31.36,35.10,37.47,13.41,45.15,1014.16,1994.13,3113.65,2925.19,3346.76,599.48,577.75,5.88,0000 0000 0000 0000 000000
2018-06-24 20:19:23,0.05,0.44,0.00,31.35,35.09,37.47,13.60,45.77,1014.16,1994.18,3112.61,2924.63,3345.89,600.49,578.77,5.93,0000 0000 0000 0000 000000
2018-06-24 20:24:24,0.06,0.44,0.00,31.33,35.07,37.45,13.51,45.58,1014.17,1994.38,3111.68,2924.01,3345.12,600.00,578.31,5.98,0000 0000 0000 0000 000000
2018-06-24 20:29:26,0.05,0.44,0.00,31.32,35.06,37.45,13.47,45.56,1014.17,1994.62,3110.87,2923.75,3344.86,599.93,578.21,6.04,0000 0000 0000 0000 000000
2018-06-24 20:34:27,0.04,0.44,0.00,31.31,35.05,37.44,13.44,45.26,1014.17,1994.67,3110.05,2923.05,3344.08,599.88,578.26,6.09,0000 0000 0000 0000 000000
2018-06-24 20:39:28,0.02,0.45,0.00,31.28,35.04,37.42,13.48,45.23,1014.17,1994.87,3109.75,2923.00,3344.00,599.89,578.32,6.14,0000 0000 0000 0000 000000
2018-06-24 20:44:30,0.02,0.45,0.00,31.27,35.02,37.41,13.40,45.04,1014.18,1994.92,3109.05,2922.99,3343.86,599.84,578.15,6.19,0000 0000 0000 0000 000000
2018-06-24 20:49:31,0.02,0.45,0.00,31.27,35.01,37.39,13.48,45.20,1014.18,1994.98,3108.91,2922.70,3343.30,600.05,578.48,6.24,0000 0000 0000 0000 000000
2018-06-24 20:54:32,0.03,0.45,0.00,31.25,35.00,37.37,13.49,45.17,1014.18,1994.99,3108.21,2922.20,3343.01,600.09,578.58,6.29,0000 0000 0000 0000 000000
2018-06-24 20:59:33,0.00,0.45,0.00,31.25,34.98,37.37,13.41,45.17,1014.18,1994.99,3107.99,2922.01,3342.99,599.50,578.02,6.34,0000 0000 0000 0000 000000
2018-06-24 21:04:34,0.02,0.45,0.00,31.22,34.97,37.36,13.44,45.16,1014.18,1994.99,3107.45,2922.00,3342.72,599.83,578.37,6.39,0000 0000 0000 0000 000000
2018-06-24 21:09:36,0.01,0.45,0.00,31.21,34.95,37.34,13.51,45.23,1014.18,1994.99,3107.01,2921.94,3342.13,600.33,578.81,6.44,0000 0000 0000 0000 000000
2018-06-24 21:14:37,0.02,0.45,0.00,31.20,34.94,37.33,13.46,45.22,1014.31,1994.99,3106.70,2921.55,3342.01,599.39,578.14,6.49,0000 0000 0000 0000 000000
2018-06-24 21:19:38,0.01,0.45,0.00,31.18,34.92,37.30,13.44,45.05,1014.33,1994.99,3106.08,2921.09,3341.96,599.90,578.61,6.54,0000 0000 0000 0000 000000
2018-06-24 21:24:39,0.01,0.45,0.00,31.17,34.91,37.29,13.44,45.40,1014.22,1995.00,3105.98,2921.00,3341.58,599.82,578.37,6.59,0000 0000 0000 0000 000000
2018-06-24 21:29:40,0.02,0.46,0.00,31.17,34.90,37.29,13.50,45.40,1014.36,1995.01,3105.32,2920.99,3341.10,599.94,578.69,6.64,0000 0000 0000 0000 000000
2018-06-24 21:34:42,0.00,0.46,0.00,31.15,34.89,37.27,13.38,45.27,1014.58,1995.03,3105.00,2920.93,3341.00,599.96,578.77,6.69,0000 0000 0000 0000 000000
2018-06-24 21:39:43,0.02,0.46,0.00,31.15,34.87,37.24,13.54,45.52,1014.60,1995.08,3104.90,2920.70,3340.99,600.00,578.92,6.74,0000 0000 0000 0000 000000
2018-06-24 21:44:45,0.04,0.46,0.00,31.13,34.86,37.24,13.47,45.35,1014.49,1995.28,3104.26,2920.29,3340.80,600.10,578.91,6.79,0000 0000 0000 0000 000000
2018-06-24 21:49:46,0.03,0.46,0.00,31.12,34.85,37.21,13.50,45.53,1014.64,1995.39,3104.00,2920.03,3340.24,599.77,578.63,6.84,0000 0000 0000 0000 000000
2018-06-24 21:54:47,0.03,0.46,0.00,31.11,34.83,37.20,13.50,45.39,1014.39,1995.62,3103.76,2920.00,3340.01,600.06,578.90,6.89,0000 0000 0000 0000 000000
2018-06-24 21:59:48,0.02,0.46,0.00,31.10,34.82,37.17,13.58,45.52,1014.20,1995.77,3103.12,2920.00,3340.00,600.17,578.83,6.94,0000 0000 0000 0000 000000
2018-06-24 22:04:49,0.01,0.46,0.00,31.10,34.80,37.15,13.49,45.23,1014.23,1995.91,3103.00,2919.98,3339.99,600.12,578.94,6.99,0000 0000 0000 0000 000000
2018-06-24 22:09:51,0.01,0.46,0.00,31.10,34.80,37.13,13.44,45.35,1014.57,1995.96,3102.82,2919.85,3339.74,599.81,578.84,7.04,0000 0000 0000 0000 000000
2018-06-24 22:14:52,0.02,0.47,0.00,31.10,34.78,37.11,13.47,45.18,1014.65,1995.99,3102.30,2919.67,3339.47,599.84,578.85,7.09,0000 0000 0000 0000 000000
2018-06-24 22:19:53,0.01,0.47,0.00,31.10,34.77,37.11,13.46,45.31,1014.60,1995.99,3102.05,2919.39,3339.18,599.77,578.80,7.14,0000 0000 0000 0000 000000
2018-06-24 22:24:54,0.01,0.47,0.00,31.10,34.76,37.09,13.55,45.44,1014.60,1995.99,3101.98,2919.04,3339.00,600.24,579.30,7.19,0000 0000 0000 0000 000000
2018-06-24 22:29:56,0.01,0.47,0.00,31.10,34.75,37.08,13.51,45.39,1014.66,1995.99,3101.53,2919.00,3338.98,600.15,579.28,7.24,0000 0000 0000 0000 000000
2018-06-24 22:34:57,0.00,0.47,0.00,31.10,34.75,37.08,13.53,45.63,1014.66,1995.99,3101.02,2918.99,3338.79,600.00,579.12,7.29,0000 0000 0000 0000 000000
2018-06-24 22:39:58,0.01,0.47,0.00,31.10,34.74,37.06,13.45,45.38,1014.66,1995.99,3100.98,2918.92,3338.25,600.20,579.25,7.34,0000 0000 0000 0000 000000
2018-06-24 22:44:59,0.03,0.47,0.00,31.07,34.72,37.06,13.50,45.40,1014.66,1995.99,3100.43,2918.40,3338.01,600.08,579.18,7.39,0000 0000 0000 0000 000000
2018-06-24 22:49:59,0.00,0.47,0.00,31.07,34.72,37.05,13.45,45.38,1014.66,1995.99,3100.02,2918.03,3337.97,600.01,578.99,7.44,0000 0000 0000 0000 000000
2018-06-24 22:55:01,0.01,0.47,0.00,31.06,34.71,37.04,13.52,45.47,1014.67,1995.99,3099.86,2918.00,3337.47,600.02,579.04,7.49,0000 0000 0000 0000 000000
2018-06-24 23:00:02,0.01,0.47,0.00,31.05,34.70,37.04,13.52,45.56,1014.69,1995.99,3099.15,2917.95,3337.03,600.26,579.41,7.54,0000 0000 0000 0000 000000
2018-06-24 23:05:03,0.01,0.47,0.00,31.04,34.70,37.04,13.56,45.48,1015.02,1995.99,3098.97,2917.51,3337.00,600.05,579.40,7.59,0000 0000 0000 0000 000000
2018-06-24 23:10:04,0.02,0.47,0.00,31.02,34.68,37.03,13.37,45.38,1015.13,1995.99,3098.61,2917.09,3336.87,599.37,578.95,7.64,0000 0000 0000 0000 000000
2018-06-24 23:15:06,0.01,0.48,0.00,31.01,34.67,37.02,13.46,45.17,1015.09,1995.99,3098.07,2917.01,3336.31,599.58,579.01,7.69,0000 0000 0000 0000 000000
2018-06-24 23:20:07,0.00,0.48,0.00,31.00,34.66,37.01,13.50,45.48,1015.08,1995.99,3097.99,2917.00,3336.00,599.73,579.24,7.74,0000 0000 0000 0000 000000
2018-06-24 23:25:09,0.00,0.48,0.00,30.98,34.65,37.00,13.50,45.47,1015.11,1996.01,3097.78,2916.98,3336.00,599.75,579.31,7.79,0000 0000 0000 0000 000000